[[{"header":{"parameterUnit":"m.s-1","parameterCategory":2,"la1":30.2992,"la2":30.254,"lo1":-89.0895,"lo2":-89.0443,"dy":0.0025,"dx":0.0025,"nx":19,"ny":19,"refTime":"2026-04-20T21:00:00:Z","depth":"0","parameterNumber":2,"parameterNumberName":"U-component_of_CURRENTS"},"data":[0,0,0,-0.2866,-0.2868,-0.2956,-0.2956,-0.3026,-0.3027,0,0,0,0,0,0,0,0,0,0,0,-0.2818,-0.2819,-0.2866,-0.2868,-0.2956,-0.2956,-0.3026,-0.3027,0,0,0,0,0,0,0,0,0,0,0,-0.2818,-0.2818,-0.2819,-0.2869,-0.2956,-0.2956,-0.3026,-0.2968,0,0,0,0,0,0,0,0,0,0,-0.2886,-0.2842,-0.2818,-0.2819,-0.2869,-0.2956,-0.2956,-0.2965,-0.2971,-0.2977,0,-0.2988,0,-0.3021,-0.3031,-0.3032,0,0,0,-0.2858,-0.2837,-0.2876,-0.2819,-0.287,-0.2956,-0.2913,-0.2969,-0.2976,-0.2985,-0.299,-0.2993,-0.3023,-0.3032,-0.3032,-0.3147,-0.3148,0,0,-0.2853,-0.2821,-0.2872,-0.288,-0.289,-0.2911,-0.2916,-0.2973,-0.2969,-0.299,-0.2996,-0.3024,-0.3032,-0.3033,-0.3146,-0.3147,0,0,0,-0.2846,-0.2817,-0.2855,-0.2876,-0.2903,-0.2914,-0.292,-0.2966,-0.2983,-0.2997,-0.3025,-0.3033,-0.3034,-0.3145,-0.3147,-0.3178,0,0,0,-0.2842,-0.2815,-0.2852,-0.2832,-0.2902,-0.294,-0.2911,-0.2978,-0.2987,-0.3024,-0.3033,-0.3034,-0.3145,-0.3146,-0.3175,-0.3194,0,0,0,-0.2815,-0.2812,-0.2824,-0.2831,-0.2878,-0.2941,-0.296,-0.2981,-0.3004,-0.3032,-0.3035,-0.3144,-0.3146,-0.3173,-0.319,-0.3218,0,0,0,-0.2776,-0.2807,-0.2823,-0.2874,-0.2877,-0.2978,-0.296,-0.302,-0.3048,-0.3033,-0.3145,-0.3146,-0.3172,-0.3188,-0.3216,-0.313,-0.3134,0,0,-0.2802,-0.2809,-0.2847,-0.2865,-0.2959,-0.2966,-0.3061,-0.3078,-0.3075,-0.3119,-0.3122,-0.3176,-0.319,-0.3218,-0.3231,-0.3232,0,0,0,-0.2849,-0.2863,-0.2899,-0.2953,-0.3027,-0.3086,-0.3116,-0.3133,-0.3168,-0.3103,-0.3203,-0.3212,-0.3227,-0.3172,-0.3173,-0.3107,-0.3155,-0.3154,-0.3154,-0.2801,-0.287,-0.2931,-0.3016,-0.3083,-0.317,-0.3217,-0.3244,-0.3228,-0.3251,-0.3257,-0.3328,-0.327,-0.327,-0.3204,-0.3277,-0.3277,-0.3277,-0.3277,-0.2815,-0.2839,-0.2938,-0.3016,-0.3106,-0.318,-0.3295,-0.3302,-0.3362,-0.3328,-0.3341,-0.3232,-0.3273,-0.3202,-0.328,-0.3279,-0.3279,-0.3279,-0.3279,-0.2751,-0.2772,-0.2836,-0.2943,-0.3047,-0.3165,-0.326,-0.334,-0.3382,-0.3414,-0.3337,-0.3334,-0.3254,-0.3407,-0.3408,-0.3408,-0.3408,-0.3408,-0.3408,-0.2632,-0.271,-0.2734,-0.2867,-0.2919,-0.304,-0.323,-0.3295,-0.3362,-0.3377,-0.3376,-0.3273,-0.3367,-0.3341,-0.3412,-0.3411,-0.3411,-0.341,-0.341,-0.2518,-0.2554,-0.2586,-0.2631,-0.2773,-0.2827,-0.3063,-0.3205,-0.3305,-0.3313,-0.3251,-0.3357,-0.3338,-0.3335,-0.3309,-0.3368,-0.3368,-0.3368,-0.3368,-0.24,-0.2437,-0.2427,-0.2466,-0.256,-0.2713,-0.2773,-0.2951,-0.3106,-0.3118,-0.32,-0.3135,-0.314,-0.3107,-0.3109,-0.3077,-0.3076,-0.3076,-0.3076,-0.2293,-0.232,-0.2257,-0.2334,-0.2437,-0.2548,-0.2545,-0.2711,-0.2944,-0.3061,-0.3131,-0.3143,-0.3047,-0.306,-0.3004,-0.3013,-0.2959,0,0]},{"header":{"parameterUnit":"m.s-1","parameterCategory":2,"la1":30.2992,"la2":30.254,"lo1":-89.0895,"lo2":-89.0443,"dy":0.0025,"dx":0.0025,"nx":19,"ny":19,"refTime":"2026-04-20T21:00:00:Z","depth":"0","parameterNumber":3,"parameterNumberName":"V-component_of_CURRENTS"},"data":[0,0,0,-0.0343,-0.0341,-0.0234,-0.0233,-0.0061,-0.006,0,0,0,0,0,0,0,0,0,0,0,-0.0383,-0.0383,-0.0343,-0.0341,-0.0234,-0.0233,-0.0061,-0.006,0,0,0,0,0,0,0,0,0,0,0,-0.0383,-0.0383,-0.0383,-0.0341,-0.0234,-0.0233,-0.0062,-0.0147,0,0,0,0,0,0,0,0,0,0,-0.0254,-0.0307,-0.0383,-0.0383,-0.034,-0.0234,-0.0233,-0.0151,-0.0142,-0.0106,0,-0.0103,0,-0.0083,-0.0049,-0.0049,0,0,0,-0.0323,-0.0315,-0.0284,-0.0383,-0.0339,-0.0234,-0.0277,-0.0146,-0.0135,-0.0093,-0.0101,-0.0094,-0.008,-0.0048,-0.0047,0.0034,0.0033,0,0,-0.0329,-0.0358,-0.0292,-0.0278,-0.0329,-0.0281,-0.0274,-0.014,-0.0136,-0.01,-0.009,-0.0077,-0.0047,-0.0046,0.0034,0.0034,0,0,0,-0.0358,-0.0362,-0.0335,-0.0285,-0.0272,-0.0278,-0.027,-0.0141,-0.0133,-0.0088,-0.0075,-0.0046,-0.0044,0.0034,0.0034,-0.0084,0,0,0,-0.0361,-0.038,-0.0339,-0.0354,-0.0275,-0.0211,-0.0275,-0.0142,-0.0126,-0.0076,-0.0046,-0.0043,0.0035,0.0034,-0.008,-0.0147,0,0,0,-0.0385,-0.0383,-0.0376,-0.0356,-0.0317,-0.0213,-0.0196,-0.0138,-0.0119,-0.0048,-0.0042,0.0035,0.0034,-0.0077,-0.014,-0.0125,0,0,0,-0.0409,-0.0442,-0.0377,-0.0409,-0.0318,-0.0293,-0.0196,-0.0158,-0.0109,-0.0045,0.0034,0.0034,-0.0076,-0.0136,-0.0122,-0.0071,-0.0082,0,0,-0.0473,-0.045,-0.0472,-0.0412,-0.0432,-0.0306,-0.0303,-0.0193,-0.0103,-0.0003,-0.0001,-0.0082,-0.0139,-0.0125,-0.0112,-0.0122,0,0,0,-0.0507,-0.0527,-0.052,-0.0513,-0.0458,-0.0405,-0.029,-0.0224,-0.013,-0.0079,-0.0063,-0.0095,-0.0082,-0.0044,-0.0052,0.0251,0.003,0.0031,0.0031,-0.0624,-0.0603,-0.0647,-0.0612,-0.0581,-0.0467,-0.041,-0.0294,-0.0199,-0.0173,-0.0178,-0.0232,-0.0194,-0.0199,0.0112,-0.0152,-0.0152,-0.0153,-0.0153,-0.075,-0.0785,-0.0747,-0.0783,-0.0704,-0.0673,-0.0518,-0.0434,-0.0326,-0.0257,-0.0237,-0.0154,-0.0214,0.0121,-0.016,-0.0159,-0.0158,-0.0157,-0.0157,-0.0838,-0.0857,-0.0867,-0.0906,-0.0897,-0.0796,-0.0759,-0.0617,-0.0447,-0.0432,-0.0311,-0.0307,-0.002,-0.0398,-0.0398,-0.0398,-0.0399,-0.0399,-0.0399,-0.0925,-0.0939,-0.1012,-0.1034,-0.1058,-0.1042,-0.0891,-0.08,-0.0589,-0.0436,-0.0434,0.0006,-0.0305,-0.0303,-0.0403,-0.0402,-0.0402,-0.0401,-0.0401,-0.1041,-0.1035,-0.1155,-0.1203,-0.1267,-0.1295,-0.114,-0.0896,-0.0738,-0.0622,-0.0028,-0.04,-0.0343,-0.0335,-0.0332,-0.0432,-0.0432,-0.0432,-0.0432,-0.1108,-0.112,-0.128,-0.1384,-0.1459,-0.1416,-0.1335,-0.1017,-0.038,-0.0006,0.013,0.0232,0.022,0.0317,0.0311,0.0331,0.0401,0.0403,0.0404,-0.1182,-0.1225,-0.1352,-0.1454,-0.1548,-0.154,-0.1461,-0.106,-0.0048,0.047,0.0543,0.0508,0.069,0.0646,0.0824,0.0791,0.0832,0,0]}],[{"header":{"parameterUnit":"m.s-1","parameterCategory":2,"la1":30.2992,"la2":30.254,"lo1":-89.0895,"lo2":-89.0443,"dy":0.0025,"dx":0.0025,"nx":19,"ny":19,"refTime":"2026-04-20T21:00:00:Z","depth":"2","parameterNumber":2,"parameterNumberName":"U-component_of_CURRENTS"},"data":[0,0,0,-0.2686,-0.2688,-0.2782,-0.2782,-0.2854,-0.2855,0,0,0,0,0,0,0,0,0,0,0,-0.2638,-0.2638,-0.2685,-0.2688,-0.2782,-0.2782,-0.2854,-0.2855,0,0,0,0,0,0,0,0,0,0,0,-0.2638,-0.2638,-0.2639,-0.2689,-0.2782,-0.2782,-0.2854,-0.2793,0,0,0,0,0,0,0,0,0,0,-0.2707,-0.2665,-0.2638,-0.2639,-0.2689,-0.2782,-0.2782,-0.279,-0.2796,-0.2801,0,-0.2814,0,-0.2847,-0.2859,-0.2859,0,0,0,-0.2679,-0.266,-0.2698,-0.2639,-0.269,-0.2782,-0.2737,-0.2794,-0.2801,-0.2809,-0.2815,-0.2819,-0.2848,-0.286,-0.286,-0.2972,-0.2973,0,0,-0.2674,-0.2644,-0.2693,-0.2702,-0.2712,-0.2734,-0.274,-0.2799,-0.2796,-0.2816,-0.2821,-0.2849,-0.286,-0.2861,-0.2971,-0.2972,0,0,0,-0.2665,-0.264,-0.2676,-0.2698,-0.2725,-0.2737,-0.2744,-0.2793,-0.2809,-0.2822,-0.285,-0.2861,-0.2861,-0.297,-0.2971,-0.3005,0,0,0,-0.2662,-0.2636,-0.2674,-0.2655,-0.2724,-0.2766,-0.2737,-0.2805,-0.2813,-0.285,-0.2861,-0.2862,-0.297,-0.2971,-0.3002,-0.3022,0,0,0,-0.2634,-0.2633,-0.2646,-0.2654,-0.2703,-0.2767,-0.2785,-0.2807,-0.283,-0.286,-0.2862,-0.2969,-0.2971,-0.3,-0.3018,-0.3044,0,0,0,-0.2597,-0.2629,-0.2645,-0.2696,-0.2702,-0.2801,-0.2785,-0.2847,-0.2876,-0.2861,-0.297,-0.2971,-0.2999,-0.3015,-0.3042,-0.2939,-0.2941,0,0,-0.2623,-0.263,-0.2667,-0.2686,-0.2777,-0.2787,-0.2881,-0.2903,-0.2902,-0.2943,-0.2946,-0.3003,-0.3018,-0.3044,-0.3037,-0.3036,0,0,0,-0.2669,-0.2684,-0.2719,-0.2773,-0.2844,-0.2904,-0.2938,-0.2955,-0.2993,-0.293,-0.3028,-0.3037,-0.3052,-0.2986,-0.2986,-0.2979,-0.2979,-0.2979,-0.2979,-0.2628,-0.2694,-0.2753,-0.2834,-0.29,-0.2987,-0.3035,-0.3064,-0.3051,-0.3075,-0.3083,-0.3152,-0.3083,-0.3082,-0.3101,-0.3102,-0.3102,-0.3102,-0.3102,-0.2644,-0.2667,-0.2762,-0.2838,-0.2927,-0.3,-0.3112,-0.3122,-0.3183,-0.3152,-0.3164,-0.3048,-0.3084,-0.3105,-0.3105,-0.3104,-0.3104,-0.3103,-0.3103,-0.2587,-0.2606,-0.2671,-0.2774,-0.2877,-0.2991,-0.3083,-0.3164,-0.3206,-0.3238,-0.3149,-0.3147,-0.3158,-0.3233,-0.3233,-0.3233,-0.3233,-0.3234,-0.3234,-0.2477,-0.2552,-0.2578,-0.2706,-0.2758,-0.2875,-0.3059,-0.312,-0.3178,-0.3189,-0.3188,-0.3196,-0.3192,-0.3167,-0.3237,-0.3236,-0.3236,-0.3236,-0.3235,-0.2372,-0.2408,-0.244,-0.2485,-0.2619,-0.2659,-0.289,-0.3015,-0.3112,-0.3112,-0.316,-0.3161,-0.3139,-0.3137,-0.3111,-0.3163,-0.3163,-0.3163,-0.3163,-0.2262,-0.2298,-0.229,-0.2326,-0.2411,-0.2545,-0.2561,-0.2667,-0.2849,-0.2867,-0.2879,-0.2804,-0.2815,-0.277,-0.2777,-0.2741,-0.2697,-0.2696,-0.2695,-0.2161,-0.2187,-0.2128,-0.2199,-0.2291,-0.2373,-0.2297,-0.2256,-0.2408,-0.2672,-0.2751,-0.3141,-0.3063,-0.3067,-0.3023,-0.3024,-0.2977,0,0]},{"header":{"parameterUnit":"m.s-1","parameterCategory":2,"la1":30.2992,"la2":30.254,"lo1":-89.0895,"lo2":-89.0443,"dy":0.0025,"dx":0.0025,"nx":19,"ny":19,"refTime":"2026-04-20T21:00:00:Z","depth":"2","parameterNumber":3,"parameterNumberName":"V-component_of_CURRENTS"},"data":[0,0,0,-0.0281,-0.0279,-0.0177,-0.0176,-0.0007,-0.0005,0,0,0,0,0,0,0,0,0,0,0,-0.0319,-0.0319,-0.0281,-0.0279,-0.0177,-0.0176,-0.0007,-0.0005,0,0,0,0,0,0,0,0,0,0,0,-0.032,-0.0319,-0.0319,-0.0279,-0.0177,-0.0176,-0.0007,-0.009,0,0,0,0,0,0,0,0,0,0,-0.0192,-0.0244,-0.0319,-0.0319,-0.0278,-0.0177,-0.0176,-0.0094,-0.0085,-0.0048,0,-0.0047,0,-0.0027,0.0005,0.0006,0,0,0,-0.0261,-0.0252,-0.0223,-0.0319,-0.0278,-0.0177,-0.0218,-0.0089,-0.0078,-0.0036,-0.0044,-0.0038,-0.0025,0.0006,0.0007,0.0091,0.0091,0,0,-0.0267,-0.0295,-0.0231,-0.0217,-0.0268,-0.0221,-0.0215,-0.0083,-0.0079,-0.0044,-0.0034,-0.0022,0.0007,0.0008,0.0091,0.0091,0,0,0,-0.0295,-0.0299,-0.0274,-0.0224,-0.0211,-0.0219,-0.0211,-0.0085,-0.0077,-0.0032,-0.002,0.0008,0.001,0.0092,0.0091,-0.0023,0,0,0,-0.0298,-0.0317,-0.0277,-0.0291,-0.0215,-0.0153,-0.0216,-0.0086,-0.007,-0.0021,0.0008,0.0012,0.0092,0.0091,-0.0019,-0.0087,0,0,0,-0.0321,-0.0319,-0.0313,-0.0294,-0.0257,-0.0155,-0.0138,-0.0082,-0.0063,0.0006,0.0012,0.0092,0.0092,-0.0016,-0.008,-0.007,0,0,0,-0.0344,-0.0376,-0.0314,-0.0344,-0.0258,-0.0231,-0.0139,-0.0101,-0.0053,0.0009,0.0092,0.0091,-0.0015,-0.0076,-0.0067,-0.0027,-0.0039,0,0,-0.0405,-0.0383,-0.0403,-0.0346,-0.0363,-0.0243,-0.0238,-0.0132,-0.0045,0.0056,0.0058,-0.0021,-0.008,-0.0069,-0.0062,-0.0073,0,0,0,-0.0437,-0.0456,-0.0448,-0.044,-0.0386,-0.0336,-0.0223,-0.0159,-0.0067,-0.0021,-0.0001,-0.0034,-0.0024,0.0007,-0.0001,0.0088,0.0089,0.0089,0.0089,-0.055,-0.0528,-0.0569,-0.0534,-0.0503,-0.0391,-0.0337,-0.0223,-0.013,-0.0105,-0.0112,-0.0166,-0.0135,-0.014,-0.0083,-0.0084,-0.0084,-0.0085,-0.0085,-0.067,-0.0704,-0.0665,-0.0698,-0.0622,-0.059,-0.0438,-0.0358,-0.0254,-0.0186,-0.0169,-0.0097,-0.0156,-0.0094,-0.0092,-0.0091,-0.009,-0.0089,-0.0089,-0.0757,-0.0774,-0.0784,-0.082,-0.081,-0.0712,-0.0678,-0.054,-0.0375,-0.0361,-0.0254,-0.0251,-0.0229,-0.0331,-0.0331,-0.0332,-0.0332,-0.0332,-0.0332,-0.0843,-0.0855,-0.0927,-0.0947,-0.0971,-0.0956,-0.0811,-0.0723,-0.0524,-0.0379,-0.0377,-0.0248,-0.024,-0.024,-0.0336,-0.0336,-0.0335,-0.0335,-0.0334,-0.0958,-0.0952,-0.1069,-0.1117,-0.1177,-0.1203,-0.1058,-0.083,-0.068,-0.0571,-0.0352,-0.035,-0.0298,-0.0289,-0.0288,-0.0391,-0.0391,-0.0391,-0.0391,-0.1026,-0.1037,-0.1193,-0.1294,-0.1366,-0.1322,-0.1247,-0.0951,-0.0607,-0.0401,-0.0401,-0.0354,-0.0351,-0.0297,-0.0288,-0.0285,-0.0389,-0.0389,-0.0389,-0.11,-0.1142,-0.1266,-0.1364,-0.1453,-0.1442,-0.1359,-0.0991,-0.0484,-0.0391,-0.0429,-0.0386,-0.0312,-0.0309,-0.0218,-0.0207,-0.0199,0,0]}],[{"header":{"parameterUnit":"m.s-1","parameterCategory":2,"la1":30.2992,"la2":30.254,"lo1":-89.0895,"lo2":-89.0443,"dy":0.0025,"dx":0.0025,"nx":19,"ny":19,"refTime":"2026-04-20T21:00:00:Z","depth":"4","parameterNumber":2,"parameterNumberName":"U-component_of_CURRENTS"},"data":[0,0,0,-0.197,-0.1974,-0.2174,-0.2175,-0.2326,-0.2328,0,0,0,0,0,0,0,0,0,0,0,-0.19,-0.1901,-0.197,-0.1975,-0.2174,-0.2175,-0.2326,-0.2328,0,0,0,0,0,0,0,0,0,0,0,-0.1899,-0.1901,-0.1903,-0.1975,-0.2174,-0.2175,-0.2326,-0.2201,0,0,0,0,0,0,0,0,0,0,-0.202,-0.1974,-0.1901,-0.1903,-0.1976,-0.2174,-0.2175,-0.2197,-0.2209,-0.2206,0,-0.2244,0,-0.2288,-0.2335,-0.2336,0,0,0,-0.1976,-0.1964,-0.2014,-0.1903,-0.1978,-0.2174,-0.2085,-0.2204,-0.2218,-0.2222,-0.2247,-0.2253,-0.229,-0.2336,-0.2336,-0.2483,-0.2484,0,0,-0.1965,-0.1938,-0.2005,-0.2023,-0.2038,-0.2078,-0.2091,-0.2214,-0.2231,-0.2247,-0.2258,-0.2293,-0.2337,-0.2338,-0.2482,-0.2483,0,0,0,-0.1932,-0.193,-0.198,-0.2016,-0.2061,-0.2084,-0.2098,-0.2226,-0.2243,-0.226,-0.2295,-0.2337,-0.2339,-0.2481,-0.2482,-0.2521,0,0,0,-0.1926,-0.1911,-0.1975,-0.1961,-0.2059,-0.2162,-0.2107,-0.2234,-0.225,-0.2294,-0.2337,-0.234,-0.248,-0.2482,-0.2519,-0.2534,0,0,0,-0.1889,-0.1907,-0.1932,-0.1959,-0.2046,-0.2161,-0.2186,-0.2239,-0.227,-0.2336,-0.234,-0.248,-0.2482,-0.2516,-0.253,-0.2556,0,0,0,-0.1851,-0.1896,-0.1932,-0.2004,-0.2044,-0.2175,-0.2186,-0.2294,-0.2356,-0.2338,-0.2481,-0.2482,-0.2515,-0.2527,-0.2553,-0.2235,0,0,0,-0.1881,-0.19,-0.1943,-0.198,-0.2095,-0.2147,-0.2274,-0.2357,-0.2377,-0.243,-0.2435,-0.252,-0.2529,-0.2555,-0.2344,0,0,0,0,-0.1935,-0.1964,-0.2008,-0.2089,-0.2184,-0.2281,-0.2369,-0.2407,-0.249,-0.2422,-0.2545,-0.2551,-0.2565,-0.2374,-0.2491,-0.2491,-0.2491,-0.249,-0.249,-0.1912,-0.1981,-0.2061,-0.2159,-0.225,-0.2385,-0.2462,-0.2529,-0.2539,-0.2585,-0.2601,-0.2674,-0.2476,-0.2624,-0.2624,-0.2624,-0.2624,-0.2625,-0.2625,-0.1933,-0.1966,-0.2086,-0.2188,-0.2306,-0.2419,-0.2556,-0.2594,-0.2684,-0.2669,-0.2681,-0.2452,-0.2629,-0.2628,-0.2628,-0.2627,-0.2627,-0.2626,-0.2626,-0.188,-0.1903,-0.2002,-0.2147,-0.2292,-0.2438,-0.2535,-0.2649,-0.2714,-0.2751,-0.2541,-0.2705,-0.2679,-0.2758,-0.2758,-0.2758,-0.2758,-0.2758,-0.2759,-0.1761,-0.1861,-0.1928,-0.21,-0.2186,-0.2327,-0.253,-0.2577,-0.2683,-0.2557,-0.2765,-0.2718,-0.2714,-0.2687,-0.2762,-0.2761,-0.2761,-0.276,-0.276,-0.1654,-0.1717,-0.1791,-0.1876,-0.2057,-0.2134,-0.2374,-0.2409,-0.2439,-0.2386,-0.2446,-0.246,-0.2414,-0.2418,-0.2378,-0.2364,-0.236,-0.2356,0,-0.1551,-0.1596,-0.1657,-0.1732,-0.1807,-0.2003,-0.1977,-0.2084,-0.2183,-0.2111,-0.243,-0.2496,-0.2504,-0.2452,-0.2449,-0.24,0,0,0,-0.1466,-0.1501,-0.1491,-0.1601,-0.1672,-0.1772,-0.1955,-0.1912,-0.2181,-0.2116,-0.226,-0.2285,-0.257,-0.2771,-0.2736,-0.2731,-0.2686,0,0]},{"header":{"parameterUnit":"m.s-1","parameterCategory":2,"la1":30.2992,"la2":30.254,"lo1":-89.0895,"lo2":-89.0443,"dy":0.0025,"dx":0.0025,"nx":19,"ny":19,"refTime":"2026-04-20T21:00:00:Z","depth":"4","parameterNumber":3,"parameterNumberName":"V-component_of_CURRENTS"},"data":[0,0,0,-0.0177,-0.0176,-0.0105,-0.0105,0.0035,0.0036,0,0,0,0,0,0,0,0,0,0,0,-0.0203,-0.0203,-0.0177,-0.0175,-0.0105,-0.0105,0.0035,0.0036,0,0,0,0,0,0,0,0,0,0,0,-0.0203,-0.0203,-0.0203,-0.0175,-0.0106,-0.0105,0.0034,-0.0027,0,0,0,0,0,0,0,0,0,0,-0.01,-0.014,-0.0203,-0.0203,-0.0175,-0.0106,-0.0105,-0.003,-0.0023,0.0013,0,0.001,0,0.0022,0.0045,0.0046,0,0,0,-0.0159,-0.0147,-0.0127,-0.0203,-0.0175,-0.0106,-0.0132,-0.0027,-0.0018,0.0022,0.0012,0.0017,0.0024,0.0046,0.0047,0.0126,0.0126,0,0,-0.0163,-0.0184,-0.0133,-0.0123,-0.0172,-0.0135,-0.0131,-0.0022,-0.0019,0.0012,0.002,0.0026,0.0047,0.0048,0.0126,0.0126,0,0,0,-0.0185,-0.0187,-0.0171,-0.0128,-0.0122,-0.0133,-0.0128,-0.0024,-0.0019,0.0022,0.0028,0.0048,0.0049,0.0126,0.0126,0.0027,0,0,0,-0.0187,-0.0201,-0.0173,-0.0184,-0.0125,-0.008,-0.0133,-0.0027,-0.0014,0.0027,0.0048,0.0051,0.0126,0.0126,0.003,-0.0033,0,0,0,-0.0203,-0.0202,-0.0199,-0.0185,-0.0162,-0.0082,-0.007,-0.0024,-0.0011,0.0046,0.0051,0.0126,0.0126,0.0033,-0.0027,-0.0027,0,0,0,-0.0218,-0.0242,-0.02,-0.0225,-0.0163,-0.0144,-0.0071,-0.0042,-0.0003,0.0048,0.0126,0.0126,0.0034,-0.0024,-0.0024,-0.0068,0,0,0,-0.0262,-0.0248,-0.0264,-0.0225,-0.0242,-0.0152,-0.0148,-0.0064,0.0009,0.0098,0.0099,0.0029,-0.0027,-0.0026,-0.0087,0,0,0,0,-0.0286,-0.0302,-0.0298,-0.0297,-0.0259,-0.0226,-0.0136,-0.0084,-0.0008,0.0029,0.005,0.0018,0.0021,0.0005,0.0124,0.0124,0.0124,0.0124,0.0124,-0.0367,-0.0355,-0.039,-0.037,-0.0349,-0.0268,-0.0229,-0.0137,-0.0057,-0.0036,-0.0046,-0.0096,-0.0116,-0.0015,-0.0015,-0.0016,-0.0016,-0.0017,-0.0017,-0.0455,-0.0482,-0.0466,-0.0499,-0.045,-0.043,-0.0313,-0.0249,-0.0169,-0.0106,-0.0096,-0.0079,-0.0026,-0.0024,-0.0023,-0.0022,-0.0021,-0.002,-0.002,-0.0514,-0.0529,-0.0551,-0.0596,-0.0606,-0.0538,-0.0522,-0.0412,-0.0276,-0.027,-0.0233,-0.015,-0.0157,-0.0246,-0.0246,-0.0247,-0.0247,-0.0247,-0.0247,-0.0565,-0.0587,-0.0659,-0.0697,-0.0734,-0.074,-0.0641,-0.0576,-0.0435,-0.0358,-0.0292,-0.0172,-0.0165,-0.0168,-0.0252,-0.0251,-0.025,-0.025,-0.025,-0.0633,-0.0645,-0.0754,-0.0813,-0.0897,-0.0891,-0.0817,-0.0662,-0.0592,-0.0501,-0.0376,-0.0369,-0.0331,-0.0319,-0.0327,-0.0461,-0.0461,-0.0462,0,-0.0673,-0.0689,-0.0837,-0.0943,-0.1012,-0.0976,-0.0902,-0.0797,-0.0613,-0.0608,-0.0579,-0.0446,-0.0437,-0.0399,-0.039,-0.0404,0,0,0,-0.0718,-0.076,-0.087,-0.0977,-0.1058,-0.0956,-0.0877,-0.0816,-0.0652,-0.0581,-0.0485,-0.0479,-0.0396,-0.0265,-0.0188,-0.0179,-0.018,0,0]}]]